Wind_Speed
2 3 3 4 3 4 1 2 2 2 2 0 3 1 4 3 2 2 4 5 3 3 0 1 1 1 3 6 8 8 6 3 4 4 3 3 10 14 15 21 27 25 24 23 23 22 20 22 22 24 24 24 24 23 22 22 22 23 25 26 27 26 26 26 26 26 25 25 25 24 23 23 22 22 22 20 19 19 20 21 20 20 18 17 16 15 16 17 17 16 15 15 14 14 14 14 15
4 4 4 6 3 3 1 3 3 2 3 2 4 4 3 2 1 3 5 6 3 1 3 3 4 5 7 9 9 7 7 3 3 3 2 10 15 14 18 25 27 25 24 23 23 22 21 21 22 24 23 24 24 23 23 22 23 23 25 26 26 26 26 25 25 25 24 24 23 23 23 22 21 20 20 19 18 18 19 18 18 18 17 17 15 14 16 17 16 15 15 14 14 14 14 14 16
5 4 5 8 3 2 1 3 2 1 3 2 5 4 3 1 3 4 4 7 5 1 3 2 4 4 5 8 6 4 2 1 5 3 4 13 12 12 22 26 26 24 23 23 23 22 21 21 22 24 23 24 24 24 24 23 23 23 24 25 25 25 25 25 25 24 24 23 22 22 21 21 21 20 19 19 18 18 18 17 16 17 17 17 16 14 15 15 15 15 15 14 14 14 14 15 15
5 4 5 6 3 3 3 3 2 4 3 4 4 5 3 2 3 3 5 7 4 1 3 4 5 4 5 8 3 2 3 2 5 3 4 8 9 16 23 24 24 22 23 23 22 22 21 20 21 23 23 24 24 23 24 23 23 23 24 25 25 25 25 24 24 24 23 22 21 21 20 20 20 19 18 18 18 18 18 16 16 16 16 15 15 14 14 15 15 15 14 13 13 14 14 15 15
4 5 4 3 2 1 3 2 2 3 4 4 2 5 4 4 3 3 4 7 5 3 1 4 3 3 5 5 1 1 3 3 5 4 4 7 14 21 22 22 22 22 23 22 22 22 21 20 20 21 22 23 23 22 23 22 22 23 23 24 24 25 25 24 24 24 23 22 21 20 20 19 19 18 17 17 17 17 17 15 16 17 15 13 13 14 14 14 13 13 13 12 13 14 14 14 14
5 6 3 3 2 1 3 2 2 3 4 4 1 6 5 5 5 4 4 7 6 1 2 4 3 2 4 3 3 3 1 3 4 5 5 11 18 21 21 22 23 23 23 22 23 22 22 21 20 21 22 22 23 22 22 21 21 22 22 22 23 23 24 23 23 22 21 20 19 19 18 18 18 17 16 16 16 16 15 14 14 15 15 13 12 13 13 13 13 13 13 13 13 13 14 14 14
5 4 2 4 1 1 4 2 4 4 4 3 3 6 8 6 4 4 3 3 4 2 3 4 6 5 2 1 1 5 4 4 5 6 11 17 21 21 21 21 22 23 23 24 24 22 22 21 21 22 21 22 23 23 21 21 21 21 21 21 21 22 22 22 21 20 19 18 17 17 17 17 17 16 15 14 15 14 14 14 13 13 14 12 11 10 11 12 12 13 14 14 14 13 13 13 12
4 2 1 4 1 2 3 2 3 3 4 4 5 6 9 10 6 5 3 1 3 1 4 5 7 6 1 1 1 5 9 9 11 14 18 20 21 21 21 23 23 22 23 25 24 23 22 21 21 21 20 20 21 23 22 21 20 20 20 19 20 21 21 20 20 19 17 16 16 16 16 16 15 14 14 13 13 13 13 13 12 12 12 11 10 9 9 11 11 11 13 14 14 14 14 12 10
3 1 1 3 2 1 2 2 4 3 4 6 5 7 9 10 7 5 4 2 3 1 2 3 6 5 4 4 3 2 7 13 18 19 21 21 21 22 23 24 23 23 25 25 24 23 22 21 21 19 18 17 18 20 21 21 20 19 18 17 18 19 20 19 18 18 17 16 16 15 15 15 14 14 13 12 12 12 13 12 11 11 10 10 9 8 8 9 9 9 11 13 14 14 14 12 10
3 2 2 1 3 1 3 2 3 2 5 6 6 10 10 8 6 6 5 4 5 4 2 3 6 6 7 5 3 2 5 16 22 20 21 22 22 24 24 23 23 26 27 25 25 24 23 22 20 18 17 17 17 16 17 19 18 18 17 15 16 17 18 18 18 17 16 16 16 15 15 14 14 13 12 11 11 12 11 11 11 10 10 9 8 8 7 7 7 8 11 13 14 14 13 12 11
2 2 3 3 3 2 4 3 3 3 5 5 6 10 8 7 5 7 3 4 5 7 5 4 7 7 7 4 2 5 9 15 21 19 21 23 23 24 24 22 23 27 27 25 24 23 23 22 19 17 14 15 16 14 13 15 16 17 16 15 15 16 16 16 17 16 16 15 15 15 15 14 14 13 12 11 11 11 11 10 10 9 9 8 8 8 7 7 8 10 13 15 15 14 13 12 11
2 2 4 4 3 3 4 2 4 5 6 4 5 7 4 4 3 5 1 5 5 8 4 2 7 5 6 3 2 7 10 11 16 20 21 23 23 23 23 22 22 23 24 24 23 23 23 22 20 17 15 15 16 15 14 15 15 16 16 15 15 15 15 15 15 15 15 15 15 15 15 14 14 13 12 11 11 10 10 10 10 8 8 8 8 8 8 9 10 12 14 15 15 14 13 12 11
3 2 5 3 3 3 3 1 3 4 5 3 4 7 5 3 2 2 2 7 5 7 2 3 9 5 4 3 3 7 8 10 16 21 22 23 23 23 23 23 23 22 23 23 24 25 24 23 22 21 19 18 18 17 16 17 16 16 16 14 14 14 15 15 14 15 15 14 14 14 14 13 13 13 12 11 11 10 10 10 10 9 9 8 8 9 10 11 12 14 14 13 14 14 13 12 11
3 3 4 2 1 2 3 1 2 1 4 5 3 7 7 4 2 2 6 8 5 2 2 5 9 5 4 4 4 5 8 14 19 21 23 23 23 24 24 24 24 23 23 24 25 26 26 24 24 23 22 20 18 17 17 17 17 17 15 13 13 13 14 14 14 15 15 14 14 14 13 12 12 12 12 11 11 10 10 10 10 10 9 8 8 9 10 11 13 13 12 12 12 13 12 11 10
3 2 4 2 0 1 2 2 2 3 3 5 3 7 7 5 3 5 5 5 4 1 3 5 3 2 5 7 5 6 12 19 20 21 23 22 22 23 24 24 24 24 24 25 25 26 26 25 25 25 24 23 20 19 18 18 18 17 15 13 13 14 15 14 14 14 14 13 13 13 12 11 11 11 11 10 10 10 10 9 9 10 9 8 8 9 10 11 12 11 10 10 11 11 11 10 9
3 3 5 1 1 1 2 3 2 2 4 5 3 6 7 6 5 5 3 2 5 4 3 3 4 1 6 6 6 14 21 22 22 24 24 21 21 21 21 23 23 24 24 25 25 25 25 25 25 25 25 25 23 22 20 20 19 18 16 15 15 15 15 14 14 13 12 11 11 11 11 11 11 10 10 9 9 9 9 9 8 9 8 8 8 9 10 10 11 9 9 9 9 9 8 8 8
3 4 4 0 3 3 3 3 3 2 5 6 4 6 6 6 4 3 3 7 7 4 5 3 4 1 2 6 17 25 26 24 25 25 23 20 20 19 18 20 21 22 22 23 23 24 24 24 24 24 24 24 23 24 23 21 20 17 16 16 16 15 14 14 13 12 11 10 10 10 10 10 10 10 9 9 9 9 9 8 8 8 7 7 7 8 8 9 9 8 8 7 6 6 6 6 7
2 3 2 2 3 3 5 6 5 3 3 6 5 5 4 5 4 2 4 8 5 6 6 6 6 5 9 16 27 29 26 26 26 24 20 17 18 18 17 19 19 19 19 20 21 22 23 23 24 24 23 23 23 23 23 22 20 18 17 17 16 15 14 14 12 12 11 11 10 9 9 9 9 9 8 8 8 8 8 8 8 8 7 7 7 7 7 7 7 6 5 4 4 3 3 4 5
2 3 2 4 5 4 5 6 5 3 3 6 7 4 3 4 3 1 3 1 2 6 5 6 9 10 13 18 24 25 25 25 24 23 20 17 18 19 18 19 19 18 19 19 19 19 21 23 24 24 23 22 22 23 22 21 20 19 19 18 17 15 14 14 13 12 11 10 9 9 9 8 8 7 7 7 6 7 7 7 7 7 6 6 6 6 6 6 5 4 3 2 2 1 2 2 3
2 3 2 5 5 4 5 5 6 5 4 6 8 4 5 5 3 1 5 5 2 4 3 6 9 11 14 14 18 22 23 22 21 21 19 17 17 19 20 20 20 20 20 19 19 19 20 23 23 24 23 21 21 21 20 19 20 19 19 18 17 17 15 13 12 11 10 9 8 8 8 7 7 7 6 6 6 6 6 6 6 6 6 5 5 5 6 5 4 3 2 1 1 1 1 1 2
1 3 4 6 4 2 6 8 8 6 3 4 6 5 8 7 1 2 6 5 1 5 6 8 13 14 15 14 16 19 19 18 18 19 18 17 16 17 18 19 20 21 20 19 19 20 21 22 22 22 21 20 19 19 19 18 19 19 18 18 18 16 14 12 11 9 9 8 7 8 8 7 7 6 6 6 5 6 6 6 6 6 6 6 5 5 5 5 4 3 2 2 1 1 0 1 3
1 3 5 5 4 3 6 7 7 4 1 3 4 4 6 4 3 2 5 3 3 6 6 8 16 17 17 16 15 15 16 15 15 16 17 17 16 17 18 19 20 20 19 20 20 20 21 21 21 21 19 18 17 16 17 17 18 19 18 18 17 15 13 11 10 9 8 7 7 7 7 6 6 5 5 5 4 4 5 6 6 6 5 6 5 5 4 4 4 3 2 2 2 2 2 2 3
2 4 3 4 5 4 5 4 5 4 1 5 4 3 3 4 6 1 4 3 5 5 4 11 16 17 16 16 15 14 16 15 15 17 19 18 18 20 21 21 22 21 19 19 20 19 19 19 19 19 18 17 15 15 16 16 17 18 17 16 15 14 12 10 9 8 8 7 7 6 5 4 4 4 4 4 5 4 4 5 5 5 6 6 5 4 3 3 3 2 2 2 2 2 3 3 3
3 3 5 5 5 6 7 4 4 5 5 8 3 4 5 5 6 1 1 3 5 3 5 14 16 15 14 14 15 15 14 15 15 18 21 20 21 22 22 21 21 21 19 19 19 17 17 17 17 17 16 17 16 15 16 17 17 17 16 15 14 12 11 10 9 8 7 7 6 6 5 4 4 4 5 5 5 5 5 4 4 5 6 7 5 3 4 3 2 2 2 2 2 2 2 1 1
3 5 5 3 3 7 8 6 6 6 7 6 2 5 9 8 3 1 2 3 3 4 9 13 15 14 13 13 15 14 13 13 14 17 19 20 20 19 19 20 21 21 18 17 17 15 16 16 15 15 15 16 17 16 16 17 17 18 16 15 13 11 10 8 8 7 7 6 6 6 5 5 5 6 6 5 5 6 5 5 4 5 6 6 4 4 5 4 3 3 2 1 1 1 1 1 1
5 6 4 3 5 7 5 6 7 5 5 4 3 8 11 6 3 1 3 3 6 8 12 14 14 12 12 12 13 14 13 14 14 16 17 18 19 17 19 21 21 20 18 16 16 15 16 15 14 14 14 15 16 16 16 17 17 17 15 14 12 10 9 7 7 6 5 5 5 5 5 5 5 6 6 5 6 7 6 4 4 4 4 4 2 4 5 5 4 5 4 3 2 2 2 2 2
5 5 4 6 6 7 3 4 6 2 3 6 7 9 7 3 3 3 2 7 9 11 14 13 12 10 11 11 11 11 12 13 14 15 15 15 16 16 18 19 19 18 16 17 16 16 16 15 14 15 14 15 16 15 15 15 15 15 13 12 11 9 8 7 6 5 4 4 4 5 5 5 5 5 4 5 6 6 4 3 4 3 2 1 1 2 4 5 6 6 5 4 4 3 3 2 2
4 4 4 7 5 6 3 4 6 1 3 7 9 6 2 4 1 5 5 9 10 12 14 13 10 8 10 10 9 8 8 10 13 14 12 8 6 5 2 1 4 11 13 16 16 16 15 14 14 15 15 15 16 16 15 15 14 13 12 11 9 8 7 6 4 3 3 4 5 5 5 5 5 4 4 4 5 4 3 2 2 2 2 1 0 1 3 5 6 7 7 6 5 5 3 3 2
1 3 2 7 7 6 5 4 4 3 3 6 8 2 4 1 4 4 7 11 8 11 13 12 10 7 9 9 7 5 5 8 9 5 5 11 12 7 5 8 8 7 9 15 17 18 17 16 16 16 16 15 16 16 15 14 13 12 11 9 7 5 4 3 2 2 3 4 5 5 5 5 5 5 4 5 5 4 3 2 2 2 2 2 1 2 3 5 6 7 7 7 6 6 4 3 3
1 1 1 4 7 6 6 1 2 3 3 6 7 2 6 6 8 4 10 13 11 11 12 12 9 7 8 7 6 5 5 5 4 9 13 12 7 6 11 9 7 7 5 13 17 18 18 18 18 17 17 16 15 16 14 12 11 10 9 7 5 3 2 1 1 2 2 3 4 4 4 5 5 5 6 6 5 4 3 2 2 2 3 2 2 2 3 4 5 6 6 7 7 6 5 4 4
1 1 1 2 2 4 8 2 2 1 2 5 6 4 6 8 8 6 11 12 13 13 12 12 10 8 7 6 7 5 4 5 7 12 12 13 12 8 9 12 12 6 4 8 14 18 20 20 19 19 18 16 15 15 13 11 9 7 6 6 4 2 1 1 2 3 2 3 3 2 3 5 5 5 6 6 6 5 4 3 2 1 2 2 2 2 3 4 5 5 5 6 6 6 4 4 4
3 1 2 3 1 4 9 4 5 4 4 3 6 3 5 7 7 8 12 10 10 11 11 12 11 11 9 6 7 6 4 7 8 11 11 12 14 13 13 17 18 12 7 10 13 17 21 21 20 21 19 17 16 15 13 10 8 6 5 4 3 2 2 3 3 4 4 5 3 2 3 4 4 4 5 6 6 6 5 4 3 2 1 2 2 3 4 5 6 5 5 6 6 6 5 4 4
3 2 2 2 1 2 6 3 4 5 2 1 4 3 2 5 6 5 11 9 7 9 11 11 11 10 9 6 6 6 5 6 6 9 12 14 16 18 19 21 23 20 18 19 17 19 22 21 20 21 20 18 16 15 13 10 7 6 5 4 3 3 4 5 5 6 6 6 5 5 5 4 4 3 3 4 4 5 4 4 3 2 2 2 3 4 5 5 5 5 5 5 6 6 6 5 4
4 3 1 2 2 1 4 4 3 1 1 3 3 4 4 6 5 4 9 10 8 7 9 9 9 8 7 6 6 6 7 6 5 9 13 15 18 20 21 23 25 23 22 21 18 20 22 20 21 21 21 19 17 15 12 10 9 7 6 5 5 5 6 7 8 8 7 6 6 7 6 5 4 3 3 2 2 2 2 2 2 2 2 3 4 4 5 5 5 5 5 5 5 6 5 5 5
2 1 1 2 3 2 3 5 3 4 1 4 4 5 6 7 4 5 9 10 9 7 8 7 7 8 7 6 6 6 8 7 6 10 13 15 19 20 20 23 27 25 23 21 18 20 20 20 21 21 21 20 17 15 12 11 10 9 8 7 6 7 8 9 10 9 8 7 6 7 6 6 5 4 4 3 3 3 3 2 2 1 2 3 4 5 5 5 5 6 5 4 4 5 5 5 5
4 3 4 3 3 3 5 6 4 1 3 1 4 6 5 4 3 6 7 8 8 7 7 6 6 7 7 5 5 6 6 6 6 12 16 19 20 18 19 22 26 26 23 19 18 20 22 21 20 19 19 19 17 15 13 12 11 11 10 9 7 8 10 11 11 10 9 8 6 6 7 7 6 6 5 5 4 4 3 3 2 1 1 2 4 5 5 4 4 4 4 2 3 5 6 5 4
4 3 3 3 3 4 6 5 5 1 4 1 3 3 3 5 5 5 6 7 8 8 7 7 7 7 7 6 6 6 5 5 8 13 16 20 20 17 18 21 24 25 23 22 23 24 23 20 19 18 18 18 18 16 14 14 14 14 13 10 9 9 11 11 11 10 9 8 7 6 6 7 7 6 5 4 4 4 3 3 2 2 1 2 3 5 3 1 1 2 3 2 3 5 7 6 5
3 3 2 3 3 4 6 4 6 3 3 3 1 4 2 3 3 3 6 7 7 8 8 8 10 9 7 6 7 7 5 4 8 11 14 19 20 17 18 19 22 24 24 24 26 25 21 19 19 20 20 19 17 15 16 16 15 15 14 13 11 10 11 11 11 10 9 8 6 5 5 5 5 5 5 4 5 5 4 4 3 2 2 2 3 4 3 2 3 3 2 2 3 4 6 6 6
3 2 2 2 3 3 6 5 6 4 3 2 1 6 2 4 3 2 2 3 3 4 5 5 8 8 7 8 8 7 6 6 8 10 12 18 20 18 19 20 21 22 21 19 20 20 20 20 21 20 20 19 16 15 15 15 15 14 13 14 13 12 11 11 10 10 9 8 7 6 5 5 5 4 4 4 6 6 5 4 4 3 2 1 2 3 3 2 4 4 3 3 3 2 2 4 5
2 3 3 2 4 0 2 4 6 5 3 2 4 5 2 5 2 1 2 0 3 4 4 4 5 5 3 6 6 7 7 8 9 10 10 15 18 18 19 21 20 17 16 16 16 17 18 20 20 19 19 17 15 14 14 14 15 14 12 13 14 13 12 11 11 10 10 9 7 6 5 6 5 4 4 4 6 5 4 5 5 4 3 2 0 2 2 2 3 4 3 2 3 2 2 3 3
2 3 5 3 4 3 3 3 5 5 5 4 5 5 4 5 2 3 2 2 4 4 6 6 5 2 1 2 4 5 7 7 9 11 9 11 14 17 20 21 19 16 15 15 15 16 16 17 18 18 18 16 14 13 13 15 16 15 14 14 14 14 14 13 12 11 10 8 7 6 5 6 5 4 4 5 5 4 4 5 5 4 3 3 2 2 2 1 1 2 2 2 3 3 3 3 2
3 4 8 7 5 5 3 4 5 4 5 4 5 5 3 6 3 3 3 2 2 2 6 7 6 4 4 4 4 5 5 6 8 8 8 9 12 15 18 18 16 15 15 14 14 16 16 16 17 18 18 16 13 13 14 16 17 17 16 17 17 17 16 14 12 11 10 8 7 7 7 6 4 4 5 5 5 4 4 4 4 3 3 3 3 3 3 3 3 1 2 2 1 1 2 2 2
1 5 7 7 5 5 2 2 4 2 1 2 3 5 1 6 5 3 5 2 0 1 5 6 6 6 5 5 6 6 6 6 7 7 7 9 11 13 14 16 17 15 14 13 15 16 17 17 18 20 19 16 14 15 15 16 17 17 16 16 17 17 16 14 11 10 9 9 9 9 8 7 6 5 6 6 5 5 4 3 3 3 2 2 2 2 3 4 5 4 4 3 3 1 2 3 4
2 5 7 7 6 5 4 4 4 1 2 2 5 4 4 1 4 5 4 1 1 3 5 6 5 6 6 6 7 7 8 8 7 8 9 9 12 14 15 16 17 14 13 15 17 18 19 20 21 21 19 17 17 17 17 17 16 16 15 15 15 15 14 13 12 10 10 10 11 10 9 8 8 7 6 6 6 6 5 4 4 4 4 3 1 2 3 4 4 4 5 5 4 3 1 3 5
5 5 7 6 5 5 4 6 4 1 1 2 6 4 3 2 5 5 4 3 2 5 6 7 6 6 6 7 8 9 9 8 9 10 10 11 14 16 16 16 16 16 18 18 18 19 19 21 22 22 20 20 19 18 17 17 15 14 15 15 15 14 13 13 13 12 12 12 11 10 9 8 7 7 7 7 7 6 5 4 5 5 4 2 2 2 3 3 3 4 5 5 5 6 5 3 4
4 6 6 5 5 5 5 5 3 3 3 3 6 3 2 3 5 4 4 3 3 6 5 6 7 7 7 8 8 9 8 8 9 10 10 12 15 16 15 16 17 19 21 18 15 13 14 17 20 21 20 20 20 19 18 17 16 15 16 16 16 15 13 13 14 13 13 12 11 9 8 7 7 7 8 9 8 7 5 4 4 4 3 2 3 3 4 4 4 4 5 6 6 6 6 5 5
5 6 6 7 6 5 4 3 4 5 2 5 5 0 3 1 4 1 0 1 4 6 6 5 4 6 8 8 8 9 8 8 9 8 9 10 12 12 12 15 18 18 18 16 14 11 11 14 16 18 19 20 21 20 19 18 17 17 17 16 15 15 15 15 15 15 14 12 11 10 9 8 8 9 10 9 8 8 7 7 6 6 5 5 5 5 5 5 5 5 5 5 5 6 6 7 8
5 4 5 4 4 5 4 5 4 4 2 6 4 1 4 2 3 4 4 5 5 5 7 6 5 6 7 7 7 8 8 7 8 8 7 7 7 8 11 12 7 6 10 13 13 11 9 10 12 15 18 20 21 20 19 18 19 18 17 16 16 15 15 16 17 17 15 13 12 11 11 11 11 12 11 9 8 8 8 9 9 9 9 8 7 6 5 5 5 5 5 6 6 7 7 8 10
5 5 5 4 2 3 2 3 1 2 4 4 3 2 2 3 5 4 5 7 5 5 7 7 7 7 7 6 7 7 7 7 7 5 3 3 4 3 5 8 10 7 13 18 11 5 4 3 9 15 18 18 18 18 17 17 18 18 18 18 17 17 16 16 17 17 16 14 13 13 13 13 13 13 11 9 8 7 7 8 9 9 9 9 9 8 7 6 5 6 7 8 9 9 9 8 10
4 5 4 4 3 2 1 3 1 2 4 2 4 3 1 3 3 2 5 6 6 6 5 5 5 5 4 3 2 2 2 2 2 5 7 7 9 10 11 13 11 9 17 20 10 5 3 4 9 11 10 11 13 15 17 17 17 18 18 19 18 17 16 15 16 17 16 14 13 12 12 13 13 12 10 9 7 6 6 7 7 8 8 9 9 9 8 6 6 6 7 9 9 9 8 8 9
3 3 5 5 4 4 3 3 2 3 2 2 3 1 2 2 2 4 6 5 5 5 2 1 2 2 5 6 6 6 5 6 7 8 9 9 12 15 18 16 7 9 14 16 8 8 11 10 5 2 3 9 15 18 19 19 18 18 19 20 19 18 16 15 15 15 14 14 13 11 11 11 11 10 9 8 7 6 5 5 5 5 6 7 8 8 8 6 6 6 7 8 9 8 8 9 10
1 2 5 3 4 5 3 3 4 3 2 0 1 2 2 3 2 4 4 4 5 4 2 6 7 6 8 8 8 7 7 6 6 7 9 10 12 13 14 16 13 14 19 17 9 10 14 10 10 4 6 16 19 19 19 18 18 20 20 21 20 19 17 15 15 15 13 13 12 10 9 10 10 10 9 8 6 5 3 3 2 2 3 4 4 5 7 6 6 6 7 8 8 8 8 9 10
1 2 3 4 4 7 6 2 1 3 3 2 1 1 4 2 1 4 5 5 5 5 4 6 7 8 9 8 7 7 6 5 5 4 6 7 10 13 12 14 16 17 21 20 15 14 11 12 12 10 16 25 27 22 21 20 20 20 21 20 19 19 17 15 15 14 13 12 11 9 9 9 9 9 8 8 7 5 4 2 1 0 0 1 2 2 4 5 5 6 6 7 8 7 7 9 9
5 3 5 3 3 5 5 3 3 4 2 3 2 1 3 1 1 3 3 3 3 5 4 4 5 7 8 7 6 6 5 6 6 5 4 4 7 14 15 15 17 22 24 21 19 15 11 13 17 20 26 34 34 28 24 23 21 19 19 18 19 19 17 16 15 14 13 13 12 10 9 9 8 8 7 7 7 7 5 3 1 2 3 2 2 1 1 3 4 4 5 6 6 6 6 7 8
5 4 3 3 3 1 2 3 2 2 2 3 3 1 2 3 3 3 3 4 2 3 4 4 4 4 5 4 5 5 5 7 4 3 2 3 7 11 15 18 17 19 20 18 16 14 14 16 20 26 31 32 29 26 23 21 19 18 18 18 19 19 18 16 15 15 14 13 12 10 9 9 8 7 7 7 7 7 6 4 3 2 3 4 4 3 2 2 2 2 3 3 4 4 4 6 6
4 3 3 3 3 4 2 2 3 3 3 2 2 2 2 5 4 4 6 6 5 2 1 3 3 3 4 4 4 4 3 5 6 4 2 2 7 8 11 15 15 13 14 15 14 14 18 22 24 29 31 29 26 23 21 19 18 17 17 17 18 19 19 18 17 16 15 14 12 10 9 9 8 7 7 6 6 6 5 4 3 3 3 4 5 5 5 4 3 3 2 1 1 2 3 3 4
3 3 2 2 2 3 2 2 2 3 4 3 1 1 4 5 3 5 6 6 7 5 3 3 3 4 5 5 5 6 4 4 4 5 4 4 8 9 8 9 11 10 11 14 14 16 21 27 29 29 29 31 31 25 21 19 18 17 16 16 17 19 21 20 19 18 17 16 14 11 10 9 9 9 8 7 7 7 6 5 5 4 4 5 6 7 7 7 6 5 4 3 2 1 1 1 2
5 3 2 3 3 3 4 1 1 2 4 4 4 2 6 5 3 4 5 5 6 6 5 5 4 5 5 4 5 5 5 5 4 3 3 5 9 10 9 8 9 10 11 13 13 16 20 24 28 29 28 29 28 25 22 21 19 15 13 13 15 19 21 20 19 18 17 17 16 14 12 11 10 9 8 8 8 8 8 8 8 8 7 7 7 8 9 10 9 8 8 7 6 5 4 4 3
Wind_Direction
119 109 121 138 143 139 92 69 98 321 91 290 274 230 256 219 228 277 297 303 301 282 256 41 82 88 86 110 126 104 62 105 164 148 198 193 138 152 159 157 154 148 144 143 147 152 156 158 158 157 153 151 147 142 141 140 139 139 139 141 140 139 139 139 138 136 134 132 130 127 126 125 122 120 120 121 121 118 115 110 107 110 116 118 119 121 119 115 111 112 116 118 119 121 122 122 124
124 123 128 137 126 137 195 72 103 320 66 318 270 185 254 303 258 231 291 307 272 311 50 57 74 62 64 95 109 85 43 41 151 149 126 135 132 144 153 153 151 145 142 144 149 151 154 157 158 157 155 153 150 146 145 143 141 141 142 143 142 141 140 138 136 134 132 131 129 126 126 126 124 122 122 122 122 120 118 115 109 109 115 118 117 117 116 114 110 110 115 117 118 122 123 124 127
131 133 140 144 99 62 89 47 101 94 109 236 267 229 258 297 209 198 320 311 255 310 42 17 56 51 51 74 51 46 62 78 125 113 120 135 132 142 149 151 149 144 141 144 148 149 152 156 159 159 157 155 153 151 148 145 143 144 144 144 144 142 140 138 136 135 134 132 130 128 129 128 126 125 125 124 123 121 120 117 112 112 117 120 120 117 113 115 118 114 114 117 119 121 124 126 128
137 138 162 154 72 30 68 42 132 121 152 217 265 262 240 206 209 191 340 330 251 271 20 23 37 351 37 75 44 52 87 129 129 104 118 138 145 148 147 146 144 140 139 142 146 147 150 156 158 158 157 156 156 153 150 147 146 144 145 146 146 144 141 139 139 138 136 134 131 131 131 129 127 126 125 123 122 121 121 120 115 116 122 126 125 124 119 118 119 113 110 116 122 123 125 128 129
146 145 166 154 89 84 99 80 118 123 198 190 229 265 237 208 232 232 310 311 261 223 89 74 50 334 45 67 18 82 73 122 116 66 72 123 143 146 143 142 140 136 137 141 144 145 149 153 154 154 156 157 157 154 151 149 147 144 145 146 146 146 145 143 142 141 139 136 133 133 132 130 128 127 126 125 124 124 126 125 122 123 130 133 129 125 120 117 115 110 110 115 123 128 131 133 133
146 143 109 80 97 162 118 122 163 203 223 160 218 270 255 219 226 237 247 282 284 202 114 102 111 79 66 27 37 54 2 154 107 72 104 132 143 144 142 141 138 136 137 140 143 144 148 151 153 155 157 159 159 156 153 150 148 145 144 146 147 148 147 146 145 143 141 137 133 134 133 132 130 129 129 129 130 131 132 133 129 130 137 141 133 126 121 121 115 110 113 117 127 135 137 137 137
153 152 41 72 52 25 114 169 198 222 248 175 214 270 284 274 243 268 285 306 324 40 75 93 113 96 73 288 68 22 15 139 121 120 138 139 145 143 141 140 135 134 137 141 143 144 148 152 154 157 158 159 159 156 154 152 150 147 145 146 148 149 149 148 147 146 144 138 135 135 135 135 133 132 133 135 136 136 138 141 137 136 144 146 140 131 123 121 113 109 117 124 132 138 140 140 139
152 159 20 98 63 19 107 212 229 209 254 238 236 258 277 285 285 297 310 68 309 351 95 111 109 93 68 266 113 26 47 107 127 133 140 141 145 141 140 139 132 131 138 143 143 143 148 151 153 156 156 156 158 156 155 154 153 150 148 149 151 151 149 149 149 148 146 141 138 137 138 137 136 136 137 140 140 141 144 147 143 141 146 147 143 135 124 119 112 112 119 128 133 135 138 140 140
99 60 121 99 113 60 40 267 260 225 254 268 265 265 269 276 285 278 253 181 208 144 114 148 118 109 118 86 87 43 61 115 133 136 142 145 146 142 141 139 133 134 142 145 143 144 147 150 151 152 151 150 153 157 158 156 155 152 148 150 152 149 147 148 149 148 145 142 140 139 139 138 139 139 141 144 143 146 150 150 147 146 144 144 145 138 130 121 115 117 121 129 134 134 135 137 135
52 28 140 84 115 131 315 264 257 246 246 258 263 269 272 276 277 253 234 184 180 126 118 119 103 119 124 104 79 96 115 132 135 135 146 150 146 143 140 137 138 142 144 145 144 144 145 148 149 150 151 145 145 154 158 156 155 153 149 152 151 148 148 148 148 148 145 143 141 139 139 139 140 139 139 141 142 148 153 152 148 148 146 146 146 141 139 128 125 127 125 130 133 133 133 130 125
50 341 102 79 94 163 238 242 264 265 265 278 274 264 258 269 281 261 230 156 172 128 145 108 100 124 110 103 87 115 133 136 134 136 148 151 146 141 137 136 142 145 143 143 143 144 144 144 144 147 148 140 139 145 157 160 156 153 152 156 153 151 151 149 150 148 145 142 140 138 138 137 136 135 133 134 137 144 147 145 144 148 150 150 146 141 139 130 133 132 126 128 128 129 128 123 118
95 313 68 97 155 187 207 227 270 282 296 300 280 275 263 264 286 279 223 134 151 123 153 156 136 141 99 107 123 124 130 131 136 139 146 148 145 140 138 139 141 141 140 141 143 144 146 143 141 147 146 137 140 145 159 168 163 159 159 159 155 154 152 152 151 145 141 139 138 137 136 135 134 131 129 130 132 138 137 131 133 141 144 143 140 133 126 125 129 126 122 122 122 124 124 119 114
125 156 92 137 190 177 173 182 277 315 317 278 253 285 313 326 27 326 121 110 114 120 183 180 147 125 94 125 118 130 135 138 139 142 146 145 144 141 140 140 140 141 141 144 146 148 151 147 145 151 147 141 146 150 163 171 169 167 163 160 157 156 153 152 148 142 140 137 137 137 135 134 132 129 127 129 132 136 134 125 124 129 130 129 127 122 117 121 126 125 120 116 118 120 120 117 112
146 151 121 167 195 137 156 171 278 2 286 265 259 301 330 345 23 73 100 81 54 120 155 128 134 108 99 134 134 151 151 148 144 144 147 143 144 143 142 142 143 146 147 152 152 151 152 151 152 151 145 142 147 153 165 172 172 169 164 162 162 158 152 150 146 141 140 139 139 136 133 132 130 130 128 130 134 137 134 127 125 127 126 120 117 115 115 120 127 129 123 116 116 117 117 114 111
161 129 97 127 11 357 196 201 201 143 246 261 273 320 351 329 338 61 83 90 64 58 106 93 93 97 158 170 172 165 152 150 147 145 146 142 143 143 145 147 148 151 154 157 155 153 154 156 157 152 147 148 154 161 169 172 171 169 167 169 166 158 153 152 148 142 139 138 138 133 129 129 128 129 129 131 135 138 136 131 129 128 126 118 115 115 116 122 129 131 127 121 118 114 114 111 108
133 105 74 102 216 221 222 206 168 142 253 250 265 345 13 328 352 50 347 118 110 22 51 61 347 312 186 183 140 141 148 150 148 147 145 142 142 143 147 151 154 157 158 160 158 157 158 159 159 154 153 155 162 166 169 171 170 169 171 172 165 158 156 154 148 141 137 135 134 133 133 132 130 131 131 133 135 137 138 136 134 132 128 121 118 121 121 123 128 130 126 123 118 115 113 111 108
78 84 76 171 207 186 207 198 172 179 259 272 316 15 24 327 355 88 19 59 93 37 36 41 345 307 163 128 124 136 147 149 148 146 144 144 145 145 149 155 158 161 161 161 161 160 160 160 160 158 158 162 166 167 167 169 170 170 172 169 162 159 158 154 148 142 139 138 138 138 138 137 136 137 137 138 138 139 142 143 140 137 132 127 126 127 126 125 127 129 128 125 121 120 117 114 110
70 91 122 211 190 180 190 191 189 176 252 287 324 10 17 327 340 140 67 44 64 53 37 55 50 64 93 114 126 137 146 148 150 148 147 151 152 152 155 159 161 163 163 162 163 162 164 164 163 163 164 168 171 170 170 170 170 171 171 168 161 159 159 157 153 149 150 149 149 149 145 143 144 144 143 143 143 146 149 150 147 143 140 137 135 131 128 128 130 132 134 136 134 132 126 122 116
114 116 162 222 193 208 201 194 208 201 252 297 311 338 4 297 270 163 124 55 70 70 45 78 88 93 105 120 130 140 146 149 155 154 156 163 165 164 161 164 165 165 166 165 166 166 167 167 167 169 169 172 175 175 174 172 171 170 169 166 161 161 163 163 159 157 160 159 158 157 154 153 153 150 145 142 146 156 157 154 151 149 150 146 141 136 133 132 134 137 138 139 134 129 137 144 120
166 134 202 244 206 223 234 222 235 238 275 312 301 327 350 278 227 160 146 147 143 136 146 122 123 129 127 133 137 144 149 154 163 161 165 172 175 173 167 168 168 169 169 168 168 169 169 170 171 172 173 175 178 178 174 173 172 169 166 165 164 165 166 164 163 161 162 164 162 162 162 163 163 157 151 151 163 172 167 164 162 160 161 160 154 148 144 144 142 135 118 92 79 69 127 169 134
179 154 199 237 184 221 244 221 239 256 259 269 285 333 325 288 155 114 137 121 275 217 206 165 154 150 141 143 146 152 153 157 167 168 172 175 180 183 176 172 170 171 171 168 168 170 171 173 174 174 177 177 177 179 175 173 172 169 168 168 168 167 166 164 165 165 164 166 166 166 167 168 167 166 165 168 182 184 177 181 183 180 178 176 175 165 158 158 148 129 98 68 69 88 126 156 133
159 230 214 219 170 242 246 198 219 239 203 248 282 317 291 303 31 136 141 143 237 229 221 171 157 155 150 150 150 154 156 160 170 174 178 178 182 186 181 173 171 173 173 171 169 171 174 175 177 177 179 178 174 178 179 175 173 172 172 173 173 170 169 168 167 168 169 170 171 170 167 168 169 173 178 183 200 196 193 203 196 196 200 197 192 181 173 167 152 139 132 107 86 98 120 115 103
200 268 262 240 197 233 259 183 197 182 156 259 244 279 280 351 339 249 141 191 259 267 208 155 154 155 150 149 151 157 161 166 174 178 182 181 185 190 186 177 173 173 174 176 170 169 174 176 180 180 180 178 172 178 183 180 177 177 177 178 178 173 173 172 171 173 176 177 178 175 170 176 182 188 197 205 220 219 222 227 212 215 219 218 212 199 203 187 165 167 157 135 100 92 106 104 77
193 261 290 264 196 216 254 246 220 186 217 247 253 338 298 293 300 325 74 287 307 319 139 143 151 150 145 150 157 161 165 170 177 182 184 186 190 193 190 180 174 173 173 177 173 168 172 176 181 181 181 178 174 180 185 185 183 182 182 182 181 179 178 174 176 180 184 186 184 183 182 191 204 217 222 224 235 239 245 251 246 240 230 227 223 218 238 223 194 207 173 144 126 103 89 92 49
196 226 266 270 219 233 258 278 271 239 230 241 289 295 266 250 222 104 297 312 39 91 121 137 145 143 149 157 160 164 169 173 179 183 187 192 194 194 192 183 175 174 172 171 171 167 170 177 181 186 186 179 178 182 188 190 187 187 187 185 185 186 182 179 182 186 190 191 191 191 190 198 218 230 233 238 245 251 257 269 274 260 246 240 224 221 240 233 227 238 222 194 176 151 16 344 338
215 207 243 268 279 275 285 290 276 258 236 194 182 251 263 258 148 148 267 124 108 119 129 141 143 144 155 161 165 168 173 176 181 186 189 191 190 192 191 185 178 174 170 162 161 164 170 175 182 195 195 187 185 185 190 193 189 191 190 186 188 189 184 184 184 188 192 194 194 194 199 215 226 228 233 245 252 256 260 269 274 260 254 256 238 229 232 231 239 249 251 247 243 262 309 309 311
199 189 241 248 274 295 291 270 271 267 235 183 178 234 274 317 151 210 229 135 133 130 135 149 149 150 157 164 171 173 178 181 183 184 186 187 186 189 190 188 180 172 164 153 151 159 167 170 181 197 199 197 197 193 194 195 195 196 192 191 193 190 188 188 185 189 197 202 206 207 221 230 222 215 224 243 250 255 253 259 273 262 260 287 293 255 235 235 249 259 262 264 266 274 295 290 284
186 175 265 276 307 304 252 255 270 251 234 194 178 225 316 33 176 216 172 141 143 136 141 155 154 156 161 165 169 174 185 183 182 185 186 173 143 137 118 356 152 151 149 145 149 160 164 167 182 196 200 202 204 203 201 199 202 202 198 198 195 189 190 195 196 200 207 213 220 221 226 223 214 215 223 237 235 225 212 218 259 272 296 322 274 256 237 240 254 262 262 266 272 272 274 258 250
199 147 271 301 355 331 267 263 243 173 212 187 157 245 313 297 240 224 151 141 142 138 146 156 156 159 162 166 169 174 184 181 184 174 92 62 55 81 93 26 38 89 138 151 161 169 169 174 186 195 200 205 205 205 207 204 205 203 201 203 199 197 193 199 198 184 194 203 214 220 221 216 210 217 222 230 225 208 194 193 227 271 287 288 260 245 243 245 253 257 259 263 266 267 266 239 222
283 81 114 310 5 337 283 324 124 154 195 166 142 261 275 261 264 226 152 147 144 143 154 160 159 160 162 171 170 168 172 169 131 83 78 83 93 155 166 150 101 78 113 158 169 172 173 181 192 198 199 203 204 205 210 209 208 202 201 206 207 214 198 184 133 144 164 185 207 216 223 231 216 211 223 231 228 221 215 207 238 279 279 288 285 263 252 249 253 259 259 259 260 267 267 235 213
330 10 50 1 27 291 288 303 108 190 238 148 147 238 258 268 268 196 161 155 149 150 161 164 165 168 168 171 167 166 147 114 99 107 127 154 158 158 173 170 152 115 82 161 177 179 183 189 195 201 201 200 200 203 209 211 215 209 201 204 200 202 178 136 127 137 149 156 185 208 220 241 230 212 220 230 231 224 223 223 218 246 273 291 286 272 267 261 261 263 260 255 256 265 259 226 210
35 55 313 348 135 268 302 289 174 207 298 92 144 227 266 263 253 184 166 162 151 152 161 166 172 175 171 167 160 154 121 107 113 127 147 163 161 167 187 187 179 182 193 198 200 194 194 195 195 201 202 198 198 200 203 206 217 213 199 200 185 156 150 151 144 144 143 140 144 166 196 225 223 206 209 220 219 207 209 217 191 174 235 269 278 277 275 274 270 267 259 252 252 252 234 207 198
1 81 221 280 194 280 319 311 203 200 280 23 160 186 262 275 271 193 164 161 154 154 163 168 174 177 168 160 151 146 138 126 125 136 151 167 177 184 191 188 182 187 195 201 211 204 199 198 199 204 201 195 194 195 195 197 202 199 190 188 169 144 138 143 141 138 135 135 137 144 161 180 187 183 198 212 198 188 196 213 207 195 233 247 264 269 269 274 272 265 259 255 247 234 221 201 181
318 23 88 254 242 292 316 308 314 27 225 230 183 176 227 286 283 191 165 163 160 161 167 167 169 169 158 151 149 156 163 160 154 150 157 177 189 190 192 185 180 185 190 195 204 202 198 200 203 205 200 191 189 189 186 187 184 179 180 174 157 139 132 137 135 130 128 126 128 134 141 146 148 149 168 187 160 159 168 177 202 210 245 253 256 259 263 268 265 262 262 261 244 221 216 205 185
207 259 45 302 303 305 285 279 311 15 320 220 170 185 237 293 287 177 170 166 161 166 168 166 165 159 154 155 156 164 172 177 166 144 157 189 197 193 192 183 180 186 189 188 191 196 200 202 204 203 198 190 186 185 180 177 173 170 173 162 144 133 132 135 133 129 128 126 122 123 127 126 128 130 135 137 116 104 107 111 140 177 236 251 250 258 268 267 254 253 252 245 234 217 212 208 192
149 177 164 204 269 279 267 262 265 67 79 191 194 196 214 254 219 165 163 151 148 162 168 166 161 151 154 161 160 167 175 176 151 139 165 200 204 198 196 187 185 188 187 183 184 196 201 199 200 200 196 190 184 181 178 174 169 167 166 154 139 133 135 136 136 137 136 135 128 123 123 122 123 120 113 112 109 102 90 79 82 103 221 244 248 257 272 275 256 257 257 228 223 229 227 219 199
111 133 160 211 222 271 275 272 283 208 106 331 245 177 188 213 202 165 148 139 146 160 168 166 159 158 165 168 166 171 176 159 140 143 172 204 212 209 204 192 188 189 188 184 184 196 198 191 193 192 191 190 183 178 177 175 169 164 160 154 148 142 144 144 143 145 144 140 134 128 127 127 126 119 114 113 112 112 100 86 80 91 151 228 248 253 259 256 231 272 298 261 234 246 242 226 212
71 141 183 268 218 246 268 264 308 321 104 339 327 105 56 244 215 176 149 151 165 172 177 171 163 167 172 166 165 170 168 140 142 149 173 203 218 220 209 197 193 193 194 191 187 190 188 186 193 190 187 189 183 178 177 173 169 166 162 161 160 154 152 153 151 152 151 145 141 137 135 138 138 127 126 133 129 126 118 117 121 132 167 219 254 270 266 189 193 239 275 249 235 247 242 226 220
85 130 149 280 246 267 291 287 324 355 87 354 42 99 34 290 254 251 191 163 163 163 175 172 168 177 182 176 174 174 164 152 162 165 176 199 214 215 208 204 202 201 202 197 187 185 183 187 195 190 186 186 180 178 176 171 170 171 170 169 168 165 159 159 159 156 154 155 153 153 154 158 157 141 133 142 142 133 124 135 144 145 157 207 262 293 283 206 192 219 234 232 251 261 243 239 227
125 133 135 263 265 138 315 306 333 352 50 79 91 86 349 321 347 273 283 31 104 111 133 161 187 202 203 184 180 178 173 172 178 178 184 200 206 204 203 207 209 208 206 199 189 188 188 188 191 189 186 182 175 175 178 176 174 176 177 176 175 171 164 163 163 157 159 162 157 158 163 161 161 157 146 146 147 133 128 143 140 132 120 103 24 322 301 249 199 211 226 236 259 246 223 261 245
276 179 164 233 254 185 218 314 348 347 10 62 75 45 340 345 40 201 277 31 105 120 136 159 196 198 130 181 185 182 183 187 189 188 194 202 204 201 200 205 210 209 205 199 191 193 195 189 186 187 183 176 173 179 186 185 180 175 169 163 163 160 156 160 162 157 160 161 153 148 147 144 143 141 136 136 138 122 124 141 133 125 118 95 65 38 18 4 235 209 194 223 258 244 217 246 263
308 237 199 203 193 181 237 344 27 34 6 8 59 60 323 326 330 229 298 4 111 148 167 172 183 173 164 186 194 189 184 191 199 199 198 206 209 204 202 205 209 209 206 199 192 196 201 194 185 183 179 173 176 186 189 187 181 173 163 155 153 151 150 158 164 161 162 160 149 141 137 135 130 126 126 127 128 118 121 136 134 124 110 90 76 55 48 50 41 74 128 162 227 242 225 223 225
315 243 195 179 147 137 164 31 54 83 294 328 57 109 200 316 313 296 329 332 144 256 206 193 182 178 180 185 192 195 190 192 201 203 201 207 208 204 205 208 210 209 203 197 194 196 200 195 187 182 178 176 180 185 186 185 178 170 168 166 164 162 159 162 168 166 162 155 144 138 134 132 129 127 127 124 124 121 115 129 148 146 129 116 100 76 69 68 64 74 98 112 102 94 234 207 181
225 227 154 141 140 150 148 95 82 179 220 329 13 91 125 296 274 291 339 66 257 284 242 228 206 188 186 184 190 196 196 193 193 198 203 206 206 204 203 206 209 208 200 197 197 197 197 194 188 184 181 180 182 184 187 187 181 175 175 174 172 172 170 165 166 164 158 152 144 138 133 127 124 125 126 125 122 116 110 125 153 167 169 164 130 98 87 77 83 95 93 93 93 87 98 171 175
230 193 137 135 141 140 118 97 93 26 77 308 328 33 109 250 277 310 6 82 286 277 252 247 233 206 192 188 192 197 199 196 194 200 201 203 208 204 198 198 204 206 204 201 197 196 197 193 188 184 183 183 183 185 189 190 190 188 183 177 171 170 170 165 162 160 157 155 149 142 138 132 126 126 129 128 120 111 111 133 155 168 172 159 117 104 102 90 91 101 95 86 86 87 87 110 147
194 141 102 75 73 70 69 89 98 46 61 237 287 3 105 257 293 336 23 43 300 274 252 242 235 219 199 191 194 194 197 198 198 204 205 204 207 203 194 190 195 204 206 199 191 193 194 189 186 182 180 182 183 187 193 194 195 195 188 180 173 168 168 166 163 162 161 160 156 150 148 146 140 140 137 129 118 108 107 127 151 160 151 128 118 116 117 112 101 100 95 87 80 75 74 81 104
132 108 71 54 38 30 42 50 75 64 3 251 260 355 122 246 286 271 7 311 281 279 277 267 254 234 207 194 194 190 194 201 199 205 206 203 201 195 189 186 191 199 200 196 192 192 190 188 186 180 180 184 187 192 197 196 196 196 191 185 181 177 175 174 171 168 168 168 163 155 152 148 144 144 140 128 117 107 101 109 117 114 105 102 111 118 124 125 121 118 109 96 84 71 72 81 91
104 84 78 81 10 11 30 359 42 88 266 258 260 218 136 172 249 236 257 276 269 260 263 270 276 256 226 201 192 186 191 196 197 201 197 185 175 175 182 179 168 173 197 210 203 184 181 190 187 183 186 191 192 194 197 196 195 196 195 195 193 191 188 186 183 179 177 177 170 160 153 146 141 141 139 130 118 107 98 101 100 95 91 88 95 107 122 127 125 125 117 105 99 95 95 95 94
78 84 87 95 21 16 30 314 12 171 243 262 325 353 156 216 232 228 265 283 279 259 254 262 262 249 232 210 191 183 186 189 195 191 155 115 91 101 157 129 100 131 204 226 218 151 111 155 194 200 197 195 194 193 195 197 199 201 203 204 202 199 198 196 193 188 185 185 179 168 158 152 148 145 142 136 123 110 99 96 94 91 87 84 85 91 102 117 122 118 113 111 108 104 103 99 97
129 136 123 119 104 76 220 268 317 244 250 300 339 344 297 273 269 263 283 288 289 286 273 260 251 223 184 173 162 157 160 144 97 70 67 64 64 59 70 93 113 173 212 229 223 143 125 189 207 209 193 189 194 196 200 204 207 210 212 211 207 204 204 203 200 194 189 189 186 175 165 160 156 151 147 142 132 121 108 101 99 96 92 88 85 87 95 110 122 120 114 113 110 106 101 96 95
171 162 129 140 154 140 191 217 181 216 242 324 319 303 162 205 267 290 287 294 309 306 302 70 49 67 92 72 49 41 38 50 63 73 79 78 81 82 88 104 152 236 240 239 218 175 199 199 169 127 162 203 212 209 208 210 213 215 215 213 211 210 211 211 204 197 194 191 186 178 170 165 160 158 155 150 143 135 120 112 109 100 93 88 84 85 89 101 114 117 117 113 106 101 96 94 94
240 143 109 150 181 141 132 175 169 171 147 24 266 219 203 206 269 307 317 341 351 339 15 77 71 61 69 64 56 52 42 49 72 92 101 103 102 101 107 130 171 228 244 241 224 200 199 159 106 102 218 228 229 219 213 219 223 219 215 213 211 211 213 214 208 201 199 196 190 183 177 168 161 163 167 166 163 156 143 129 114 101 88 75 74 76 79 89 100 103 110 111 105 103 96 91 91
173 125 159 215 173 119 110 139 59 83 121 222 252 268 303 342 343 323 3 19 2 0 23 68 81 79 78 73 68 67 54 38 29 69 109 129 129 123 130 149 171 208 235 238 227 215 190 148 147 182 216 228 230 224 218 224 226 217 209 208 209 211 214 218 215 207 204 201 195 190 185 177 166 165 174 179 181 180 174 172 189 237 303 28 38 53 63 71 80 87 96 101 103 105 98 91 87
124 171 203 193 114 95 105 116 19 50 147 263 330 285 290 14 162 298 11 51 358 357 12 41 59 77 89 94 91 89 85 59 16 0 53 87 105 119 147 179 192 202 217 227 223 212 180 169 186 198 211 220 222 220 217 220 220 212 206 207 208 211 216 220 218 214 210 203 199 198 194 186 176 171 177 182 185 186 180 177 199 255 268 275 296 311 32 38 49 66 80 90 97 101 96 93 87
110 164 172 113 127 135 95 121 125 110 169 280 325 322 232 202 216 243 186 181 219 341 4 38 51 65 82 96 95 89 95 94 76 325 335 63 85 117 165 196 207 199 200 210 213 198 173 177 198 209 214 217 217 214 212 212 212 209 209 209 209 212 215 217 218 218 216 208 202 201 196 191 185 181 184 185 188 190 186 181 186 226 260 264 265 258 261 313 345 13 38 72 89 93 94 95 93
52 74 39 41 131 154 150 136 148 151 156 225 306 346 252 229 214 191 200 213 206 207 24 71 89 95 103 118 112 100 114 128 138 180 230 106 97 118 169 202 218 206 190 191 193 182 171 176 194 210 216 220 221 215 206 207 207 206 209 209 211 214 212 212 215 219 220 214 207 201 195 192 186 185 192 193 194 199 201 203 205 217 246 259 257 250 251 262 273 295 316 342 63 85 91 90 97
74 55 37 27 65 122 143 82 82 128 139 172 195 291 264 252 206 186 211 218 196 183 164 138 131 131 136 140 137 139 149 148 148 165 163 114 101 109 140 189 214 206 181 176 173 166 167 174 185 200 211 218 223 219 211 212 213 211 212 210 212 214 211 210 214 218 222 220 214 207 199 196 191 190 198 205 212 219 224 232 238 243 252 260 261 258 257 261 264 268 272 271 267 233 188 142 122
135 123 141 140 125 125 122 92 325 107 121 163 162 199 266 262 208 215 232 213 189 170 152 149 149 150 149 139 139 146 147 152 162 152 117 92 95 107 123 157 180 175 161 157 154 152 159 171 184 196 207 214 218 217 215 217 218 215 214 210 211 213 211 212 215 219 225 225 222 218 212 211 210 206 208 216 225 233 241 247 249 253 258 262 265 265 263 266 269 268 267 263 257 249 241 229 217
Height
759 760 760 761 762 762 765 765 776 783 784 790 788 782 771 765 766 762 760 757 755 750 746 747 745 745 747 751 755 759 761 764 769 777 777 765 760 762 761 762 763 765 768 771 774 776 778 780 781 784 786 787 788 789 791 791 792 792 793 793 794 795 797 798 800 801 801 802 802 802 803 805 806 807 808 809 810 811 812 812 814 815 816 817 818 818 819 819 820 821 822 823 824 824 825 825 826
759 760 760 762 762 763 768 768 782 790 788 791 785 779 770 765 767 761 760 758 755 750 747 748 747 747 748 749 751 756 761 762 760 761 761 759 761 762 763 763 764 766 768 771 774 776 779 781 782 784 786 787 788 789 791 792 793 794 794 794 795 796 797 799 800 801 802 803 803 804 805 806 807 808 809 811 811 812 813 813 814 815 817 818 819 819 819 820 820 822 823 824 824 825 826 826 827
759 760 760 761 762 764 769 771 784 795 793 789 778 773 769 763 762 761 758 754 752 749 748 747 747 750 751 753 754 759 765 762 758 759 760 760 762 763 764 764 765 767 769 772 774 776 779 781 782 783 785 787 788 789 791 792 794 795 795 796 796 797 799 800 801 803 804 805 805 806 807 808 809 810 811 812 812 813 814 814 815 817 818 819 819 819 819 820 821 822 823 824 825 826 827 828 828
759 760 761 761 764 767 771 777 785 791 790 789 777 765 765 761 759 760 754 750 750 747 748 749 752 752 751 758 759 762 766 762 759 760 761 762 762 763 764 765 767 768 770 773 775 777 780 781 782 783 786 787 789 790 791 793 794 796 797 797 798 799 800 801 803 804 805 806 807 808 809 809 810 811 812 812 813 814 815 815 816 818 819 820 820 820 820 821 821 822 823 825 826 827 828 829 829
759 760 761 760 766 769 774 784 791 789 782 782 773 759 760 760 759 759 755 751 747 747 749 752 758 755 753 759 761 764 766 762 760 759 761 763 763 765 765 766 767 769 771 774 776 778 780 782 783 784 786 787 789 791 792 794 795 797 798 799 800 801 801 803 804 805 807 808 808 809 809 810 811 812 813 813 814 815 815 816 817 819 820 821 821 821 821 821 822 822 824 825 827 828 829 830 830
759 759 760 759 766 768 775 786 789 786 774 774 770 757 758 758 759 759 756 752 746 747 748 751 758 759 762 762 759 763 764 762 761 760 762 763 765 766 767 767 768 769 772 774 776 778 780 782 783 785 786 787 789 791 794 795 797 798 800 801 802 802 803 804 805 806 808 809 810 810 810 811 812 813 814 814 814 815 815 816 817 819 821 822 822 822 822 822 823 823 824 825 827 828 829 830 831
758 760 762 763 768 770 779 785 783 782 773 771 768 758 755 754 756 756 756 754 748 748 747 751 755 760 769 765 763 763 759 760 760 761 763 764 766 767 768 769 769 771 773 775 777 779 781 782 784 785 786 787 788 791 794 796 798 799 800 802 803 804 804 805 806 807 808 810 811 811 811 812 813 813 814 815 815 816 816 816 818 819 821 822 823 823 824 824 824 824 824 825 827 828 829 830 831
758 761 765 768 775 778 783 786 781 782 775 769 766 759 755 752 752 754 756 755 752 750 750 752 752 763 771 764 767 765 759 760 759 762 764 765 767 768 769 769 770 772 774 776 777 779 781 783 785 786 788 789 790 791 793 796 799 799 800 802 804 805 805 806 806 807 809 810 811 812 812 813 814 814 815 816 817 817 817 817 818 820 821 823 824 824 825 825 825 825 825 826 827 828 829 831 832
757 761 766 770 778 783 786 785 781 782 775 767 763 757 753 750 750 752 753 754 752 751 753 753 752 763 770 766 769 765 761 762 760 763 764 766 767 768 769 770 771 772 775 776 778 779 781 784 786 788 790 791 793 793 794 796 799 800 801 803 805 806 806 807 807 808 809 810 811 812 813 814 815 815 816 817 818 819 819 818 819 820 822 823 824 825 825 825 826 826 826 826 827 828 829 831 832
760 762 767 772 779 785 786 783 780 778 772 765 761 755 751 749 749 749 750 753 750 752 755 752 753 762 767 769 770 766 764 763 761 764 765 767 768 768 770 771 771 771 774 777 778 780 781 783 786 789 790 791 793 795 796 797 799 801 802 804 806 807 807 807 808 809 810 811 812 812 814 815 816 816 817 817 818 819 820 820 820 821 823 824 824 825 825 826 826 826 826 827 828 829 830 831 832
763 765 767 775 781 784 783 779 777 774 769 765 759 751 749 748 748 747 748 751 749 753 755 751 759 763 766 770 770 766 765 765 763 765 766 767 769 770 771 772 773 773 774 777 779 781 782 784 786 789 791 792 793 796 799 800 801 802 803 805 807 807 807 808 809 810 811 812 812 813 814 815 816 817 818 818 819 820 821 821 821 823 824 825 825 825 826 826 826 826 827 828 829 830 831 831 832
765 769 768 776 781 780 780 779 776 771 766 764 756 746 746 747 748 747 747 751 751 754 753 752 758 760 767 772 769 767 766 766 766 766 768 769 770 772 773 774 776 776 777 778 780 782 784 785 786 789 791 792 793 795 800 803 803 803 804 806 808 808 808 809 810 811 812 813 814 815 816 816 817 817 818 819 820 821 822 822 822 824 825 826 826 826 826 827 827 827 828 829 830 831 832 832 832
764 770 768 774 781 779 780 781 778 774 765 759 755 747 745 745 746 747 747 751 753 756 753 750 752 756 768 772 768 768 767 767 767 767 769 770 772 773 775 776 778 779 779 780 781 782 784 785 785 788 789 791 792 794 798 802 803 804 805 807 808 808 809 811 812 812 813 814 815 816 817 818 818 818 819 820 821 822 822 823 823 825 826 826 827 827 827 827 828 828 829 830 831 831 832 833 833
762 767 766 773 784 781 779 778 776 774 765 756 755 749 745 744 745 745 747 752 754 754 751 748 749 757 767 771 770 769 767 768 768 768 769 771 772 773 775 777 778 779 780 781 782 782 784 785 785 787 788 790 792 794 798 801 803 804 806 808 808 809 810 812 813 813 813 815 816 818 818 819 819 819 820 821 822 823 823 823 824 826 827 827 827 828 828 828 829 829 830 831 831 832 833 833 833
760 765 766 772 781 781 778 775 772 773 764 755 755 751 747 745 743 745 747 752 756 752 749 749 750 758 763 766 768 766 766 768 768 770 770 772 773 774 775 776 778 779 781 782 783 784 784 785 786 787 787 789 792 795 798 801 803 805 806 808 809 810 812 813 814 814 814 815 817 818 819 819 819 820 821 822 823 823 824 824 825 827 828 828 828 828 829 829 830 831 831 832 832 833 833 834 834
760 763 769 773 778 780 778 774 773 773 764 754 754 751 749 748 744 748 748 748 753 752 752 755 754 757 758 758 759 760 765 768 769 771 771 773 773 774 775 776 778 779 781 783 785 785 785 785 786 786 787 789 792 794 798 800 803 804 806 808 809 811 812 814 814 814 815 816 818 819 819 820 820 821 822 823 824 824 824 825 826 828 828 828 829 829 829 830 831 832 832 833 833 833 834 834 834
759 762 772 776 779 780 775 772 771 769 760 753 753 752 753 752 748 749 747 746 754 757 758 759 756 755 754 754 755 758 764 767 769 770 771 773 773 775 776 777 779 780 782 784 786 786 787 786 786 787 788 791 793 794 797 799 802 804 806 808 810 811 812 813 814 815 816 817 818 819 820 820 820 821 822 823 824 825 825 826 827 828 828 828 829 829 830 831 832 832 833 833 834 834 834 834 835
760 768 775 775 778 776 769 767 764 762 759 754 752 753 754 753 750 748 749 753 758 761 762 760 758 755 754 755 756 760 764 766 768 769 771 772 772 774 775 777 779 781 783 785 786 787 788 788 788 788 790 792 794 795 797 799 802 804 806 808 810 811 813 813 814 815 816 818 819 819 820 820 821 822 823 824 824 825 826 827 828 828 828 828 829 830 830 831 832 833 833 834 834 834 835 835 835
763 772 776 773 774 769 763 761 759 759 757 754 753 753 754 751 750 748 752 761 758 760 766 764 762 759 758 758 759 762 764 766 768 769 770 772 772 772 774 776 779 781 783 784 787 788 789 789 789 790 792 794 795 797 798 800 803 804 806 808 810 811 812 813 814 816 817 818 819 820 821 821 822 823 823 824 825 826 827 828 828 828 828 829 829 830 830 831 831 832 833 834 834 835 835 835 835
763 769 772 769 766 765 762 759 756 755 755 755 754 753 753 749 748 747 752 760 757 759 764 764 765 763 760 760 761 762 764 767 768 769 770 771 773 773 773 774 777 780 782 784 786 788 789 790 790 792 794 796 797 799 800 802 803 805 807 808 810 811 812 814 815 816 818 819 820 820 821 822 823 823 824 824 825 826 827 828 828 828 829 829 829 830 830 831 831 832 833 833 834 834 835 835 836
763 765 767 763 763 763 759 757 755 754 756 756 754 754 752 747 746 747 750 756 757 755 755 756 759 760 760 761 761 762 764 766 769 769 770 771 773 774 773 774 776 778 781 783 786 788 789 790 791 793 795 797 799 800 802 803 805 806 808 809 811 812 813 815 816 817 818 819 820 821 822 822 823 823 824 825 825 826 827 827 827 828 828 829 829 830 830 830 831 832 832 833 834 834 835 835 836
762 762 760 759 761 761 755 755 755 754 755 754 755 755 751 746 746 748 748 752 752 749 748 750 752 754 755 757 760 763 764 766 768 769 769 770 772 773 774 774 776 778 781 783 786 788 790 791 792 794 797 799 801 802 804 805 806 808 809 810 811 813 814 815 816 817 818 819 820 821 822 823 823 824 825 825 825 826 826 826 827 828 829 830 830 830 830 831 831 832 832 833 833 834 835 835 836
762 761 757 756 758 758 752 753 754 753 754 753 753 752 750 748 749 749 748 750 749 745 746 748 750 752 753 755 758 761 763 765 766 766 767 768 770 772 773 773 775 778 781 784 787 789 791 792 793 795 798 801 802 804 805 806 808 809 810 811 812 813 814 815 816 817 819 820 820 821 822 823 823 824 825 825 825 825 826 826 827 829 830 831 831 831 831 831 831 831 832 832 833 834 835 835 835
762 762 757 755 756 755 751 751 753 753 753 751 750 750 749 750 751 751 750 751 750 746 745 747 750 753 755 757 758 760 762 763 764 765 766 767 769 771 773 774 776 779 782 786 788 791 792 794 795 797 799 801 803 804 806 807 809 810 811 812 813 813 814 815 817 818 819 820 821 821 822 822 823 823 824 824 824 824 825 826 827 829 830 831 832 833 833 832 832 832 832 832 833 834 834 835 835
762 761 756 754 754 752 749 750 751 752 751 749 750 751 748 748 751 751 751 753 751 748 748 750 751 754 756 758 759 761 762 764 764 765 766 768 770 773 775 776 777 780 783 786 789 792 794 795 797 798 800 802 803 805 806 807 809 811 812 812 813 814 814 815 817 818 819 819 820 821 821 822 822 822 822 823 823 823 824 826 827 828 828 830 832 833 833 833 832 832 832 833 833 834 834 834 834
758 757 755 754 752 749 749 749 747 749 750 749 751 750 745 746 750 751 753 754 752 751 752 753 754 755 757 758 759 760 761 762 763 764 766 768 770 773 776 776 778 781 784 788 791 793 795 797 799 800 801 804 805 805 806 807 809 810 812 813 813 814 814 815 817 818 819 819 820 820 821 820 820 821 821 822 822 823 824 825 826 827 827 829 831 831 832 832 832 832 832 832 833 833 834 834 834
754 754 754 752 752 750 749 747 745 748 747 746 749 747 745 747 749 751 753 753 752 753 755 756 755 756 757 758 759 760 761 762 762 764 766 768 772 775 777 778 780 783 786 789 792 794 796 798 800 802 803 805 806 806 807 808 809 810 812 812 813 814 815 816 817 817 818 819 819 819 819 820 820 821 821 821 822 822 823 824 825 826 827 828 829 829 830 831 832 832 832 832 833 833 833 833 833
752 753 753 751 751 749 747 746 746 747 745 744 745 745 747 749 748 748 750 752 752 754 756 758 758 758 759 759 761 762 762 763 764 766 768 771 775 779 783 785 786 787 789 791 793 796 798 800 801 802 803 805 806 807 807 809 810 811 812 812 813 814 815 816 816 817 818 818 819 819 819 820 820 821 821 821 821 822 823 824 824 825 826 827 828 829 829 830 831 831 832 832 832 832 832 832 833
751 752 753 751 750 747 744 744 745 746 743 740 744 749 752 750 748 747 749 752 753 755 757 759 760 760 760 761 763 764 764 765 767 770 774 778 780 782 784 788 791 792 793 792 794 796 797 799 801 802 803 804 805 806 807 809 810 811 812 812 813 814 815 815 816 817 818 818 818 818 819 819 820 820 820 820 821 822 823 823 824 824 825 826 827 828 828 829 830 831 832 832 832 832 832 832 833
751 754 756 755 755 750 744 744 745 744 741 738 744 757 756 748 747 749 749 751 754 758 759 759 761 761 762 762 763 765 765 767 771 774 778 779 781 782 782 784 788 793 794 794 794 796 797 798 800 801 801 803 804 806 807 809 810 811 811 812 813 813 814 815 816 816 817 818 818 818 819 819 819 820 820 820 821 822 822 823 824 824 825 825 826 827 828 829 830 831 831 831 831 831 831 832 832
755 757 760 765 765 754 744 744 747 744 741 737 743 757 755 746 746 749 749 750 752 757 758 759 760 761 762 763 764 766 767 770 773 775 776 776 777 782 785 783 785 791 796 797 796 796 797 797 798 800 800 801 803 805 806 808 809 810 811 812 812 813 814 814 815 816 816 817 817 818 818 818 819 820 820 820 821 821 822 822 823 824 824 825 826 826 827 828 829 830 830 831 831 831 831 832 832
760 762 765 771 769 758 747 744 747 745 741 739 744 756 756 747 746 747 749 750 752 755 757 759 760 761 763 763 765 767 769 771 773 774 776 777 777 780 786 785 784 789 794 797 798 796 796 796 797 798 799 800 802 803 805 807 808 810 811 811 812 813 814 814 815 815 816 816 817 817 818 818 818 819 819 820 820 821 821 822 822 823 824 825 825 826 827 828 829 829 830 830 831 831 832 832 832
765 766 765 767 767 763 754 744 744 744 742 742 744 753 754 749 748 748 749 751 754 756 757 758 760 762 763 764 766 768 770 772 773 775 776 777 777 778 783 784 782 785 789 794 797 797 796 796 797 798 798 799 801 802 804 806 807 809 810 811 812 813 813 814 814 815 815 816 817 817 818 818 818 819 819 819 820 820 821 822 822 822 823 824 825 825 826 827 828 829 829 830 831 831 832 832 832
767 768 765 767 767 765 758 748 744 744 744 745 744 748 751 750 751 750 749 751 755 758 758 759 761 762 764 765 767 769 770 772 773 774 775 776 777 778 781 782 781 783 786 790 795 797 797 797 797 797 798 799 800 801 803 805 807 808 809 810 811 812 813 813 814 815 815 816 817 817 818 818 818 818 818 819 819 820 821 821 822 822 823 824 824 825 826 828 828 829 829 830 830 831 832 832 832
765 767 765 768 768 765 762 753 747 745 746 748 747 749 750 751 753 752 749 751 755 758 759 760 762 763 765 766 767 769 770 772 773 774 777 777 778 779 780 780 781 782 785 789 792 796 797 797 796 797 798 798 799 800 802 804 806 807 808 809 811 811 812 813 814 815 816 817 817 817 818 818 818 818 818 818 819 820 821 821 822 822 822 823 824 825 826 827 828 828 829 829 830 831 831 832 833
762 765 766 768 766 763 759 752 748 750 749 750 751 750 747 749 754 754 751 752 755 758 759 759 762 763 765 767 768 770 771 772 774 776 777 776 778 780 779 778 780 782 785 787 789 792 795 795 796 797 797 798 798 799 800 802 804 806 807 808 810 811 812 813 814 816 817 817 818 818 818 819 819 818 818 818 818 819 820 820 821 821 822 822 823 825 826 827 828 828 829 829 830 830 831 832 833
762 765 766 767 767 762 755 749 747 748 748 752 755 750 747 750 756 756 753 754 757 758 759 760 761 763 764 767 768 770 771 772 774 776 776 774 776 780 780 779 779 781 784 785 785 788 792 793 794 795 796 797 797 797 799 800 802 804 806 807 809 811 812 813 814 816 817 818 818 819 819 819 820 820 820 819 819 819 820 820 821 821 822 823 824 825 826 826 827 828 829 829 830 830 831 832 833
764 767 765 765 767 761 753 748 748 749 748 754 758 752 753 758 759 758 756 756 758 758 759 760 760 762 764 766 768 769 771 772 774 776 777 775 775 778 779 779 780 781 782 783 782 785 789 792 793 794 795 796 796 796 798 799 801 802 804 807 809 811 812 813 814 815 816 817 818 819 820 820 821 821 821 821 821 821 822 822 822 823 823 824 824 825 825 826 827 828 829 829 829 830 831 832 832
766 769 767 764 764 760 754 749 750 751 747 751 755 753 756 761 759 760 759 758 758 759 760 760 761 763 765 765 767 768 770 772 774 775 776 776 775 777 778 778 780 780 782 783 784 786 789 791 792 793 794 796 795 796 798 799 800 802 804 807 809 810 812 813 814 815 816 817 818 819 820 821 822 822 823 823 823 824 824 824 824 824 825 825 825 825 826 826 827 828 829 829 830 830 831 831 832
765 765 765 762 761 761 756 750 751 754 752 752 752 751 756 758 758 759 759 759 759 761 762 762 764 765 766 765 765 767 770 771 772 773 774 774 774 776 776 777 779 781 782 783 786 788 789 790 792 793 795 796 795 796 798 799 800 802 805 807 809 810 811 813 814 815 816 817 818 819 820 821 822 823 824 824 825 825 825 825 825 825 826 826 826 826 826 826 827 828 829 829 830 830 830 831 832
764 763 762 758 755 756 756 753 753 754 757 757 752 753 757 755 758 760 758 759 760 761 764 764 766 767 767 767 766 767 769 770 772 773 773 773 773 773 774 776 778 780 782 784 786 789 790 791 793 794 795 795 795 797 798 799 801 803 805 808 809 811 812 813 814 815 816 817 818 819 820 822 823 824 824 825 825 826 826 826 826 826 826 826 826 827 827 827 827 828 829 829 830 830 830 831 832
762 758 756 752 749 752 754 754 755 755 759 762 760 765 767 758 755 759 760 761 761 763 764 765 767 767 767 768 768 767 768 769 771 772 773 773 773 772 773 775 777 779 781 784 786 788 790 791 793 794 796 795 795 798 799 801 802 804 806 808 809 810 812 814 815 816 817 818 819 820 821 822 823 824 825 825 825 826 826 826 826 826 826 827 827 827 827 828 828 828 829 829 830 830 831 831 832
761 754 752 753 751 751 753 752 755 760 763 766 765 768 773 766 754 759 765 763 762 765 764 763 765 766 767 768 768 767 768 768 769 771 772 772 772 772 772 774 776 778 781 783 785 786 788 790 792 793 794 794 796 799 801 803 804 805 806 808 809 810 812 814 816 817 818 819 820 820 821 823 824 825 825 825 826 826 826 826 826 826 827 827 827 828 828 829 829 829 829 830 830 830 830 831 832
756 754 753 753 750 749 753 753 756 763 764 765 766 763 771 772 760 761 768 764 763 766 765 764 764 764 765 766 767 766 765 766 767 768 769 770 770 770 771 773 775 777 780 781 782 783 784 786 789 792 793 794 796 799 802 804 805 806 807 808 810 811 812 814 816 818 819 820 820 821 822 823 824 825 826 826 826 826 827 826 827 827 827 827 828 828 829 830 830 831 831 831 831 831 830 831 832
749 754 755 752 751 752 755 754 758 768 768 764 767 767 772 776 767 763 767 764 762 764 764 763 762 763 764 764 764 764 763 764 765 765 766 766 767 769 771 773 774 776 776 777 779 781 782 785 787 790 792 794 797 799 803 805 806 806 807 809 810 812 814 815 817 818 819 820 821 821 822 823 824 825 826 826 827 827 827 827 827 827 828 828 828 829 830 831 832 832 832 832 832 832 831 832 832
749 756 757 756 760 762 760 759 759 766 772 769 771 774 774 777 773 767 765 762 760 760 761 761 760 760 761 761 762 762 762 762 762 762 763 764 766 769 772 773 774 774 774 776 779 782 784 787 789 791 794 796 798 800 803 804 805 806 808 809 811 813 815 816 818 819 820 821 821 822 823 823 824 825 826 827 828 828 828 828 828 828 829 829 829 830 831 832 833 833 833 833 833 833 833 833 833
751 752 753 756 761 761 763 768 764 768 778 774 776 780 775 777 780 776 769 764 765 764 759 760 761 759 758 759 759 760 760 761 760 761 762 765 768 771 773 774 775 775 777 779 781 783 786 790 793 794 796 798 799 801 803 805 806 807 809 810 812 814 815 817 818 819 821 822 822 823 823 824 824 825 826 827 828 829 829 829 830 830 830 831 831 832 833 834 834 834 834 834 834 834 834 834 834
750 748 752 759 765 766 768 772 771 778 784 776 779 784 776 775 780 780 774 769 771 770 762 761 764 761 758 757 757 758 759 759 760 761 763 767 770 773 775 777 779 781 783 785 785 785 787 791 794 796 798 799 800 802 804 806 807 808 810 811 812 813 815 816 818 819 821 822 823 823 824 824 825 825 826 828 829 830 831 831 831 832 832 832 833 834 835 835 836 836 836 836 836 836 836 836 836
750 750 756 766 776 780 781 784 785 786 784 778 783 783 776 774 774 776 776 770 770 772 767 765 764 761 758 758 757 757 758 759 760 762 766 771 774 776 779 780 783 786 787 787 788 788 789 793 796 798 800 801 802 804 806 807 808 809 809 810 812 813 815 816 817 819 821 822 823 823 824 824 825 826 827 828 830 831 832 833 833 833 834 834 835 835 836 837 838 838 837 837 837 837 838 838 837
749 751 756 767 782 789 794 801 802 793 782 782 786 781 776 776 772 772 774 770 769 769 768 766 764 760 758 759 759 758 760 762 764 768 772 776 778 780 783 785 786 788 787 788 791 791 791 794 797 800 802 804 805 806 807 808 808 808 809 810 812 813 815 816 817 819 821 822 823 824 824 825 825 826 828 829 830 832 833 834 834 835 835 836 836 837 838 839 839 839 839 839 838 839 839 839 839
752 755 754 760 770 777 787 792 790 787 784 785 786 781 778 776 773 772 771 770 770 769 768 767 764 762 759 760 763 764 767 769 769 772 775 778 780 782 785 787 790 791 789 791 794 792 791 795 799 803 806 807 807 806 806 807 807 808 809 811 812 814 815 816 818 819 821 822 824 824 825 826 826 827 828 830 831 832 833 835 835 836 836 837 838 839 840 840 840 840 840 840 840 840 840 840 840
759 760 755 757 756 759 780 792 787 785 785 786 785 782 781 777 772 773 772 771 771 770 769 766 765 765 763 764 768 769 772 773 771 771 774 776 778 782 786 788 790 792 790 793 796 793 793 796 798 802 807 808 808 807 806 807 808 808 809 810 812 813 815 816 818 820 821 823 824 825 825 826 827 828 829 830 832 833 834 835 836 837 837 838 840 841 841 841 841 841 841 840 840 841 841 840 841
758 759 754 758 756 754 774 795 798 792 785 788 791 785 781 778 773 771 772 772 772 772 771 769 768 767 766 769 770 770 772 774 775 773 773 773 773 778 786 789 790 790 791 793 794 793 795 795 794 798 803 806 807 807 806 806 807 808 808 809 811 813 815 816 818 820 821 823 824 825 826 827 828 829 830 831 832 833 834 835 836 837 838 839 841 842 842 843 842 842 841 841 841 841 842 841 841
749 754 752 757 761 758 765 781 795 796 788 789 795 792 785 782 777 773 772 773 774 774 773 772 771 769 768 769 767 768 770 772 777 779 776 773 771 774 781 785 785 786 789 792 792 793 795 795 794 797 800 802 804 806 805 805 806 808 808 809 811 812 814 816 817 819 821 822 824 825 826 827 828 829 830 831 832 833 834 835 836 838 839 840 841 843 843 844 844 843 842 842 842 842 842 843 843
741 745 747 753 759 762 766 775 785 791 795 793 794 799 794 781 775 772 771 773 775 776 775 774 774 772 772 771 768 769 770 769 775 781 780 775 773 776 779 780 782 784 788 792 793 795 797 799 799 799 800 803 804 805 804 805 806 807 807 808 809 811 813 815 817 819 820 822 823 825 826 827 828 829 830 831 832 833 834 836 837 838 839 840 842 843 844 845 845 844 844 843 843 843 843 843 843
743 744 750 754 759 763 768 774 775 778 793 798 792 794 788 774 771 770 767 771 774 775 776 775 775 775 774 773 771 772 772 770 773 779 781 776 774 776 777 778 780 783 788 792 794 796 798 801 802 800 801 803 803 803 804 804 805 805 805 806 808 810 811 814 816 818 820 821 823 824 826 827 828 829 831 832 833 834 835 836 837 838 839 841 842 843 844 845 845 845 845 844 844 844 844 844 844
746 747 753 756 763 769 768 775 781 776 783 794 793 789 779 769 769 766 763 767 770 773 776 776 777 776 774 774 773 772 773 772 773 775 776 775 774 776 777 778 780 783 788 792 794 797 797 799 801 800 800 800 801 802 803 803 803 803 804 805 807 809 811 813 815 817 819 821 823 825 826 827 828 829 830 832 833 835 836 837 838 839 840 841 842 843 844 844 845 845 845 845 845 845 845 845 845
746 748 755 759 763 767 766 778 789 781 780 789 790 781 771 767 770 766 764 767 768 773 777 777 777 776 776 775 774 774 773 772 773 774 773 774 775 777 778 780 782 784 787 791 793 795 796 797 799 800 800 799 800 801 801 801 802 802 804 806 807 809 811 813 815 817 819 821 823 825 826 827 828 829 830 831 833 835 836 837 838 839 840 841 842 843 843 844 845 845 845 844 845 845 845 845 845